Millinocket, ME

11:02 AM EDT on May 25, 2017 (GMT -0400)
Millinocket Municipal

Weather History for KMLT - February, 2012

Change the Weather History Date:

Tuesday, February 28, 2012

  Actual Average Record
Temperature  
Mean Temperature 17 °F 23 °F  
Max Temperature 26 °F 33 °F 55 °F (1903)
Min Temperature 7 °F 13 °F -19 °F (1963)
Degree Days  
Heating Degree Days 48 42  
Month to date heating degree days 1198 1306  
Since 1 July heating degree days 5207 6052  
Cooling Degree Days 0 0  
Month to date cooling degree days 0 0  
Year to date cooling degree days 0 0  
Moisture  
Dew Point 11 °F    
Average Humidity 74    
Maximum Humidity 88    
Minimum Humidity 60    
Precipitation  
Precipitation 0.01 in 0.10 in 1.79 in (1921)
Month to date precipitation 1.45 2.18  
Year to date precipitation 4.04 5.11  
Sea Level Pressure  
Sea Level Pressure 30.18 in    
Wind  
Wind Speed 5 mph (NNW)    
Max Wind Speed 16 mph    
Max Gust Speed 22 mph    
Visibility 8 miles    
Events Snow    
T = Trace of Precipitation, MM = Missing Value Source: NWS Daily Summary

Daily Weather History Graph

Daily Weather History Graph

Search for Another Location

Airport or City:

Trip Planner

Search our weather history database for the weather conditions in past years. The results will help you decide how hot, cold, wet, or windy it might be!

Date:

Astronomy

Feb. 28, 2012 Rise Set
Actual Time 6:15 AM EST 5:19 PM EST
Civil Twilight 5:46 AM EST 5:49 PM EST
Nautical Twilight 5:11 AM EST 6:23 PM EST
Astronomical Twilight 4:37 AM EST 6:58 PM EST
Moon 8:59 AM EST (2/28) No Moon Set
Length of Visible Light 12h 03m
Length of Day
11h 03m
Waxing Crescent, 37% of the Moon is Illuminated
Feb 28
Waxing Crescent
Feb 29
First Quarter
Mar 8
Full
Mar 14
Last Quarter
Mar 22
New

Hourly Weather History & Observations

Time (EST) Temp. Windchill Dew Point Humidity Pressure Visibility Wind Dir Wind Speed Gust Speed Precip Events Conditions
12:04 AM 17.6 °F - 14.0 °F 86% 30.00 in 1.5 mi Calm Calm - 0.00 in Snow Light Snow
12:13 AM 17.6 °F 12.3 °F 14.0 °F 86% 30.01 in 1.2 mi NE 3.5 mph - 0.00 in Snow Light Snow
12:34 AM 17.6 °F 12.3 °F 14.0 °F 86% 30.00 in 1.5 mi NNE 3.5 mph - 0.01 in Snow Light Snow
12:41 AM 17.6 °F - 14.0 °F 86% 30.00 in 3.0 mi Calm Calm - 0.01 in Snow Light Snow
12:53 AM 18.0 °F 12.7 °F 14.0 °F 84% 30.03 in 4.0 mi NNE 3.5 mph - 0.01 in Snow Light Snow
1:51 AM 17.6 °F 10.7 °F 12.2 °F 79% 30.00 in 2.5 mi NNE 4.6 mph - 0.00 in Snow Light Snow
1:53 AM 17.1 °F 10.0 °F 12.9 °F 84% 30.04 in 2.5 mi NNE 4.6 mph - 0.00 in Snow Light Snow
2:11 AM 17.6 °F 12.3 °F 12.2 °F 79% 30.00 in 4.0 mi Variable 3.5 mph - 0.00 in Snow Light Snow
2:21 AM 17.6 °F - 12.2 °F 79% 30.00 in 3.0 mi Calm Calm - 0.00 in Snow Light Snow
2:53 AM 17.1 °F 11.7 °F 12.0 °F 81% 30.04 in 10.0 mi North 3.5 mph - 0.00 in   Overcast
3:12 AM 17.6 °F 9.3 °F 12.2 °F 79% 30.01 in 10.0 mi North 5.8 mph - N/A   Overcast
3:53 AM 17.1 °F 8.7 °F 12.0 °F 81% 30.06 in 10.0 mi North 5.8 mph - N/A   Overcast
4:53 AM 15.1 °F 9.4 °F 10.9 °F 84% 30.07 in 8.0 mi NNW 3.5 mph - 0.00 in   Overcast
5:53 AM 14.0 °F - 10.0 °F 84% 30.10 in 10.0 mi Calm Calm - 0.00 in   Mostly Cloudy
6:53 AM 14.0 °F 8.2 °F 10.0 °F 84% 30.14 in 10.0 mi WNW 3.5 mph - N/A   Overcast
7:53 AM 16.0 °F 7.4 °F 10.0 °F 77% 30.17 in 9.0 mi Variable 5.8 mph - N/A   Overcast
8:53 AM 18.0 °F 7.7 °F 12.0 °F 78% 30.20 in 10.0 mi WNW 8.1 mph - N/A   Mostly Cloudy
9:38 AM 19.4 °F 9.5 °F 10.4 °F 68% 30.18 in 10.0 mi NNW 8.1 mph - N/A   Overcast
9:53 AM 21.0 °F 12.4 °F 12.0 °F 68% 30.23 in 10.0 mi West 6.9 mph - N/A   Overcast
10:23 AM 21.2 °F 10.1 °F 12.2 °F 68% 30.20 in 10.0 mi WNW 10.4 mph - N/A   Overcast
10:53 AM 21.0 °F 9.9 °F 12.0 °F 68% 30.26 in 10.0 mi WNW 10.4 mph 17.3 mph N/A   Overcast
11:53 AM 23.0 °F 13.9 °F 12.0 °F 63% 30.27 in 10.0 mi West 8.1 mph 17.3 mph 0.00 in   Overcast
12:28 PM 24.8 °F 14.6 °F 12.2 °F 59% 30.23 in 10.0 mi WNW 10.4 mph 17.3 mph N/A   Overcast
12:53 PM 24.1 °F 12.5 °F 12.0 °F 60% 30.27 in 10.0 mi NNW 12.7 mph 20.7 mph N/A   Overcast
1:53 PM 25.0 °F 16.3 °F 12.0 °F 58% 30.28 in 10.0 mi NNW 8.1 mph - N/A   Overcast
2:53 PM 25.0 °F 14.2 °F 12.0 °F 58% 30.29 in 10.0 mi NNW 11.5 mph - N/A   Overcast
3:53 PM 25.0 °F 15.5 °F 12.0 °F 58% 30.30 in 10.0 mi NW 9.2 mph - N/A   Overcast
4:53 PM 24.1 °F 17.0 °F 12.0 °F 60% 30.33 in 10.0 mi NNW 5.8 mph - N/A   Overcast
5:53 PM 21.0 °F 14.6 °F 10.9 °F 65% 30.36 in 10.0 mi NNW 4.6 mph - N/A   Partly Cloudy
6:53 PM 18.0 °F - 10.9 °F 74% 30.38 in 10.0 mi Calm Calm - N/A   Clear
7:53 PM 16.0 °F - 9.0 °F 74% 30.38 in 10.0 mi Calm Calm - N/A   Clear
8:53 PM 10.9 °F - 7.0 °F 84% 30.40 in 10.0 mi Calm Calm - N/A   Clear
9:53 PM 12.9 °F 6.9 °F 8.1 °F 81% 30.39 in 10.0 mi West 3.5 mph - N/A   Clear
10:53 PM 8.1 °F - 5.0 °F 87% 30.38 in 10.0 mi Calm Calm - N/A   Clear
11:53 PM 12.9 °F 6.9 °F 8.1 °F 81% 30.38 in 10.0 mi West 3.5 mph - N/A   Overcast